STARLINK-5411, 54865

Orbit data source: Space-Track

STARLINK-5411, 54865 is a payload satellite owned by SpaceX/Seattle (US) in LEO that was launched on Wed, 28 Dec 2022 UTC via an FALCON 9 launch vehicle from the Air Force Eastern Test Range (AFETR). Payload-class satellites include a variety of spacecraft equipped with specific instruments for various scientific and technological missions. These include communications satellites like Starlink; space stations such as the ISS; scientific satellites like the Hubble; Earth observation satellites from companies like Planet Labs, Umbra, and HawkEye 360; GPS; miniature CubeSats for education and research; and military/defense satellites.

Loading next visibility...
Identifier
54865, 2022-177AX
Orbit
LEO
Country
Flag of USUS
Related business
Manufacturer
SpaceX/Seattle
Mission
Operational Commercial Communications
Bus & Motor
STARLINK, Unknown motor
Mass
305 kg wet, ~290 kg dry
Launch date (UTC)
2022-12-28 (3 years ago)
Launch vehicle
FALCON 9
Launch site
Air Force Eastern Test Range (AFETR)
Object type
Payload
Rocket body
Debris
Shape & HBR
Box + 1 Pan, 10.1 m
Radar Cross Section
13.562 m², Large (>1 m²)

Expand to show TLE details & history
Last TLE update: 2 days ago

TLE from 2 days ago
0 STARLINK-5411
1 54865U 22177AX  26171.23318245 -.00000597  00000-0 -12158-4 0  9996
2 54865  43.0034 262.4422 0001417 284.3573  75.7122 15.27587238192779
Epoch: 2026-06-20T05:35Z
TLE epoch observation values (Epoch: 2026-06-20T05:35:46.963Z)
Latitude
0.00002°
Longitude
-89.95421°
Altitude
482.563 km
Speed
7.626 km/s
True Right ascension
17h 29m 46s
True Declination
0° 00' 00"
Sunlit
Object was in full shadow at epoch
Visualization orbit readout
Latitude
Unknown
Longitude
Unknown
Altitude
Unknown
Speed
Unknown
Apparent Right ascension
Unknown
Apparent Declination
Unknown
Sunlit
N/A
Visualization observer readout
Local Sidereal Time
21:23:41
Azimuth
Unknown
Elevation
Unknown
Doppler factor
Unknown
Orbital elements
Apogee altitude
485.945 km
Perigee altitude
484 km
Semi-major axis
6,863.109 km
Eccentricity
0.00014
Inclination
43.0034°
RAAN
262.4422°
Arg. of periapsis
284.3573°
True anomaly
75.72794°
Mean anomaly
75.7122°
Eccentric anomaly
75.72007°
Mean motion
3.81735 °/min
Orbital period
94.31 mins
BSTAR
-0.000012158
Loading maneuver chart data...
Computing Atmospheric mass density...
Loading historical data...
Loading historical data...
Loading historical data...
Loading historical data...
Loading historical data...
Loading historical data...
Loading historical data...

Documentation

Showing up to 5 results
|